Temperature
12 12 12 12 12 12 12 12 12 13 12 13 13 13 13 13 13 13 14 14 14 14 14 14 14 14 14 14 14 14 14 13 13 13 13 13 13 13 13 13 13 12 12
12 12 12 12 12 12 12 12 12 13 13 13 13 13 13 13 13 13 13 13 13 14 14 14 14 14 14 14 14 14 13 13 13 13 13 12 12 13 12 12 12 12 12
11 12 11 11 12 12 12 12 12 12 12 12 12 13 12 13 13 13 13 13 13 13 13 14 14 14 14 14 14 14 14 14 13 13 13 12 12 12 12 12 12 12 11
12 11 11 11 12 12 12 12 12 12 12 12 12 13 12 13 13 13 13 13 13 13 13 14 14 14 14 14 14 14 13 13 13 13 13 13 12 12 11 11 11 11 10
11 11 11 11 11 11 11 12 12 12 12 12 12 12 12 13 13 13 13 13 13 13 13 13 13 13 13 13 13 13 13 13 13 13 13 12 12 12 11 11 10 10 10
11 11 11 11 11 11 11 11 12 12 12 12 12 12 12 12 12 12 12 12 12 12 12 12 13 13 13 13 13 13 13 13 12 12 12 12 12 12 11 11 10 10 9
10 10 10 10 10 10 11 11 11 11 11 11 12 12 12 12 12 12 12 12 12 12 12 12 12 12 12 12 12 12 12 12 12 12 12 12 11 11 11 10 10 9 9
9 9 9 10 10 10 10 11 11 11 11 11 11 11 11 12 12 12 12 12 12 12 12 12 12 12 12 12 12 12 12 12 12 12 11 11 11 11 11 10 10 9 8
9 9 9 9 9 10 10 10 10 10 10 10 11 11 11 11 11 11 11 11 11 12 12 12 12 11 11 11 11 11 11 11 11 11 11 11 11 11 10 10 9 9 8
8 8 9 9 9 9 9 9 10 10 10 10 10 10 10 11 11 11 11 11 11 11 11 11 11 11 11 11 11 11 10 10 10 10 10 10 10 10 10 10 9 8 8
8 8 8 8 9 9 9 9 9 9 10 10 10 10 10 10 10 10 10 10 10 10 10 10 10 10 10 10 10 10 10 10 10 10 10 9 9 9 9 9 8 8 7
8 8 8 8 8 8 8 9 9 9 9 9 9 9 9 10 10 10 10 10 10 10 10 10 10 10 10 9 9 9 9 9 9 9 9 9 9 9 8 8 8 7 7
7 7 7 7 8 8 8 8 8 8 8 9 9 9 9 9 9 9 9 9 9 9 9 9 9 9 9 9 9 9 9 9 9 9 9 8 8 8 8 8 7 7 6
7 7 7 7 7 7 7 8 8 8 8 8 8 8 8 8 8 8 8 8 8 8 8 8 8 8 8 8 8 8 8 8 8 8 8 8 8 8 7 7 7 6 6
6 6 6 6 6 6 7 7 7 7 7 8 8 7 7 7 8 8 8 8 8 8 8 8 8 8 8 8 8 8 8 7 7 7 7 7 7 7 7 6 6 6 5
6 6 6 6 6 6 6 6 6 6 7 7 7 7 7 7 7 7 7 7 7 7 7 7 7 7 7 7 7 7 7 7 7 7 7 7 7 6 6 6 6 5 5
5 5 5 5 5 5 6 6 6 6 6 6 6 6 6 6 6 6 6 6 6 6 6 6 6 6 6 6 6 6 6 6 6 6 6 6 6 6 6 5 5 5 4
5 5 5 5 5 5 5 5 5 5 5 5 5 5 5 5 5 5 5 5 5 5 5 5 5 5 5 5 5 6 6 6 6 6 6 5 5 5 5 5 4 4 4
4 4 4 5 5 5 5 5 5 5 5 5 4 4 4 4 4 4 4 4 4 4 4 4 5 5 5 5 5 5 5 5 5 5 5 5 5 5 4 4 4 3 3
4 4 4 4 4 4 4 4 4 4 4 4 4 4 4 3 3 3 3 3 4 4 4 4 4 4 4 4 4 4 4 4 5 4 4 4 4 4 3 3 3 3 2
4 4 4 4 4 3 3 3 3 3 3 3 3 3 3 3 3 3 3 3 3 3 3 3 3 3 3 4 4 4 4 4 4 4 4 4 3 3 3 2 2 2 1
3 3 3 3 3 3 3 3 3 2 2 2 2 2 2 2 2 2 2 2 2 2 2 2 2 3 3 3 3 3 3 3 3 3 3 3 3 2 2 2 1 1 1
3 3 2 2 2 2 2 2 2 2 2 2 1 1 1 1 1 1 1 1 1 1 1 2 2 2 2 2 2 2 2 2 2 2 2 2 2 1 1 1 0 0 0
2 2 2 2 2 1 1 1 1 1 1 1 1 1 0 0 0 0 0 0 0 0 1 1 1 1 1 1 1 1 1 1 1 1 1 1 1 0 0 0 -0 -0 -0
2 2 1 1 1 1 0 0 0 -0 -0 -0 -0 -0 -0 -0 -0 -0 -0 -0 -0 -0 -0 -0 -0 0 1 1 1 1 1 1 1 1 0 -0 -0 -0 -0 -0 -1 -1 -1
2 1 1 1 0 0 -0 -0 -1 -1 -1 -1 -1 -1 -1 -1 -1 -1 -1 -1 -1 -1 -1 -1 -1 -1 -0 -0 -0 -0 0 0 0 -0 -0 -0 -0 -0 -0 -0 -1 -1 -1
Wind_Speed
6 6 6 6 6 5 7 7 6 7 7 5 5 6 6 6 5 5 6 8 9 9 7 5 6 5 5 5 5 3 3 2 2 1 0 1 2 3 3 2 3 4 5
6 7 7 6 6 6 6 6 6 7 7 6 5 4 5 5 5 5 6 7 8 8 7 7 6 6 5 5 5 4 3 2 3 3 2 1 1 1 3 3 3 3 5
8 7 7 6 6 6 6 6 5 6 7 6 5 4 3 3 4 4 4 5 6 6 6 6 6 6 6 5 5 5 5 4 3 3 3 2 3 1 1 3 3 4 3
5 5 6 5 4 4 4 5 5 4 5 6 6 8 7 6 5 5 4 5 6 6 6 5 6 6 5 5 5 5 4 5 4 2 2 2 2 2 1 1 2 4 4
4 4 5 5 4 4 4 4 5 5 5 5 6 6 6 6 5 5 5 5 4 5 5 5 5 6 5 5 5 5 5 4 4 4 2 2 1 2 3 3 2 1 2
5 5 5 5 4 4 3 4 4 3 4 5 4 5 7 7 7 7 6 5 4 4 5 5 5 5 5 6 5 5 5 4 4 4 3 3 3 3 3 3 3 3 2
7 7 6 6 5 4 3 4 4 4 3 3 3 4 6 6 7 6 6 6 4 4 5 5 5 5 5 5 5 5 5 5 5 4 3 3 3 2 2 3 2 1 1
8 8 7 6 5 5 5 5 4 4 4 2 2 3 3 3 3 4 5 5 5 5 6 6 5 5 5 5 5 4 4 4 5 5 4 3 2 2 2 3 3 2 1
9 8 7 7 6 6 6 5 4 4 4 3 3 2 2 2 2 3 4 4 5 4 6 6 6 5 5 6 6 4 4 4 4 4 5 4 3 3 2 2 3 4 3
9 8 7 7 7 7 6 6 7 5 4 3 3 2 2 1 1 2 3 4 4 5 6 6 6 6 6 6 5 5 5 5 4 4 5 4 4 4 3 3 2 3 3
9 8 8 7 7 7 7 7 6 6 5 4 3 3 2 2 1 1 2 3 3 5 6 6 6 7 7 7 6 6 7 7 6 5 6 5 5 4 4 3 3 2 3
8 8 8 8 8 8 8 7 7 7 5 4 4 3 2 2 2 1 0 2 3 4 5 6 6 6 7 7 7 7 7 7 8 8 7 7 5 5 4 4 4 3 3
9 9 9 9 9 8 8 7 7 6 6 5 4 3 3 2 2 1 1 0 1 2 4 5 6 6 7 7 7 7 7 7 8 8 8 8 8 7 5 5 5 4 3
9 9 9 8 8 8 8 8 8 7 6 6 5 4 4 2 2 2 1 0 1 2 3 4 5 6 6 7 7 7 7 7 7 7 7 8 8 8 8 6 6 5 4
9 9 8 8 8 8 7 7 7 7 6 6 6 5 4 4 3 2 2 1 1 2 2 3 4 4 5 6 7 7 8 8 7 6 6 6 7 8 8 6 6 6 5
8 8 8 8 8 7 7 6 6 6 5 5 5 5 5 4 4 3 2 2 1 2 2 3 4 4 4 7 10 8 7 7 8 7 6 6 7 9 10 9 8 8 7
7 8 7 7 7 7 7 6 6 5 5 5 5 5 5 4 4 3 3 3 3 2 3 3 4 4 6 9 11 11 7 7 8 8 8 6 7 9 7 8 9 7 7
6 6 6 6 6 6 6 6 6 6 6 5 5 5 5 5 4 4 4 4 3 3 4 4 4 4 6 10 11 11 7 7 8 9 9 9 8 9 9 7 6 5 5
5 5 5 5 6 6 6 6 6 6 6 6 6 6 6 6 5 5 5 4 4 4 4 4 5 5 6 10 12 11 6 6 7 8 8 9 9 14 15 10 8 6 4
4 4 5 5 6 6 6 6 6 7 7 7 7 6 6 6 6 6 6 5 5 5 4 5 5 6 7 10 13 13 6 7 7 7 8 12 12 15 16 10 9 8 6
4 4 4 4 5 6 6 6 6 6 7 7 7 7 6 6 6 6 5 5 5 5 5 6 6 6 8 10 13 15 8 8 8 7 7 8 16 16 16 13 8 10 8
3 3 3 4 4 5 5 5 6 6 6 7 7 7 7 7 6 6 5 5 5 6 6 6 6 6 6 8 12 15 14 10 8 8 7 8 15 16 16 12 11 13 10
2 3 3 4 4 5 5 5 6 7 7 7 7 7 7 7 6 6 6 5 5 5 5 5 6 5 4 6 12 14 14 14 8 7 11 13 16 15 12 14 15 11 6
1 2 3 4 4 4 5 5 6 7 7 8 8 7 7 7 7 6 5 5 5 5 5 5 5 5 4 4 5 6 8 10 8 6 10 15 15 11 11 11 9 7 7
1 1 2 3 4 5 5 5 5 6 7 8 8 8 7 7 7 6 6 6 6 6 6 5 5 5 6 7 9 7 7 7 7 6 5 5 6 8 7 6 6 6 7
1 1 3 4 5 5 5 5 5 5 6 7 7 7 7 7 6 7 7 8 9 12 12 11 9 8 9 10 11 12 13 12 13 9 7 8 8 9 9 9 8 8 8
Wind_Direction
210 189 184 190 188 184 181 172 182 180 172 175 176 177 180 178 175 177 176 177 177 176 168 166 165 160 164 168 169 167 169 175 137 108 243 257 197 148 138 121 102 101 95
199 182 181 195 182 185 182 169 179 173 165 175 177 175 169 175 174 176 178 180 179 177 172 166 164 161 162 168 172 165 159 167 153 152 158 212 274 222 150 131 118 115 100
190 172 173 190 186 185 181 179 174 176 173 176 167 159 157 157 170 178 176 172 169 171 172 169 162 165 170 174 175 168 165 177 182 171 161 168 210 179 180 166 148 137 123
169 156 160 170 178 179 182 179 164 169 172 172 179 175 179 180 180 179 176 171 167 166 168 169 166 169 173 175 177 168 167 168 178 189 188 170 136 147 193 206 166 143 131
132 136 143 152 154 157 171 170 159 159 162 168 182 179 181 181 168 160 165 172 167 163 164 170 171 169 172 181 179 172 175 175 177 181 179 193 197 193 180 212 197 171 149
104 105 104 112 113 118 125 135 138 146 157 164 171 174 175 173 164 165 173 173 167 166 175 181 181 175 176 180 185 177 178 185 179 181 179 173 179 199 195 206 199 188 175
87 84 87 85 87 90 100 109 122 132 142 150 155 171 175 169 171 174 178 175 173 179 184 182 182 182 180 176 173 173 179 182 179 182 186 185 183 158 157 172 189 175 161
77 73 72 73 70 65 82 88 97 105 101 108 119 151 152 162 174 179 182 186 189 189 180 179 179 180 178 175 172 171 178 179 181 183 178 167 163 150 148 163 164 179 219
72 69 65 62 58 55 61 73 77 74 73 65 67 97 103 140 170 181 191 193 189 179 176 181 182 183 180 177 173 176 178 174 178 178 175 169 167 150 147 152 160 170 200
64 60 61 60 56 53 52 59 67 65 62 50 46 67 88 122 145 168 184 189 182 177 179 183 181 182 182 176 175 174 175 176 173 169 167 171 165 153 151 160 168 164 174
63 58 55 55 56 54 53 53 53 52 49 45 42 38 49 57 76 145 186 184 179 179 185 184 184 184 182 181 181 182 179 181 176 172 175 180 165 159 159 152 159 169 162
62 62 60 55 50 49 48 45 43 41 36 37 44 34 24 29 29 23 207 178 179 182 182 180 185 188 186 185 186 184 182 185 186 183 179 179 169 165 161 158 173 178 175
57 54 51 47 43 40 38 37 38 32 24 28 35 35 35 33 18 15 17 4 187 187 185 184 190 191 191 188 187 186 182 186 188 183 180 177 169 175 171 171 177 174 169
55 50 45 42 39 34 31 29 24 22 20 20 25 25 21 21 21 13 9 315 224 200 197 198 197 193 191 187 184 183 181 182 181 177 175 176 177 179 175 178 177 169 169
51 46 41 36 34 31 27 27 21 16 14 17 17 12 10 12 14 5 354 318 235 221 207 202 198 191 191 191 186 183 182 180 176 172 171 172 171 171 173 174 174 172 176
43 39 36 32 26 20 20 20 16 10 12 15 9 5 4 3 359 353 342 320 268 234 222 214 206 202 204 198 195 186 181 178 175 173 166 163 162 169 176 174 174 174 177
41 36 31 27 21 14 11 9 6 4 9 9 3 358 356 351 342 334 325 303 281 257 243 230 218 220 215 203 201 194 180 178 178 176 172 177 182 176 169 179 181 185 191
40 32 26 20 14 9 4 4 5 3 3 3 358 355 351 341 333 323 307 295 285 268 254 243 230 228 222 208 204 197 184 179 182 181 180 180 176 177 170 167 169 179 185
44 32 24 16 10 5 0 6 4 360 1 359 354 348 340 329 321 310 300 293 284 272 259 249 234 230 229 213 206 197 185 188 189 189 186 183 180 186 182 171 171 176 179
39 25 14 10 6 359 3 9 1 358 354 349 341 331 323 315 308 302 299 296 287 273 258 252 242 230 228 218 211 201 194 196 194 193 195 195 189 190 188 175 173 181 184
35 22 15 7 357 357 4 1 356 348 338 334 328 323 318 309 300 295 292 291 286 279 264 256 251 240 229 222 216 208 202 199 193 193 196 197 196 195 194 187 182 193 179
32 19 9 357 349 353 355 349 341 329 328 326 322 319 316 312 308 301 294 287 281 278 268 257 253 244 231 224 219 214 215 206 197 198 195 194 195 197 197 195 194 195 180
26 11 359 347 345 350 350 339 329 331 330 326 322 319 317 313 307 299 292 290 280 273 270 260 254 250 232 222 221 221 221 219 210 200 195 192 194 195 197 198 196 191 173
16 1 351 339 333 338 338 331 330 331 327 322 319 317 316 313 309 302 291 283 279 276 273 269 265 258 244 228 215 216 220 221 219 205 200 195 193 188 190 193 197 185 178
348 344 327 317 317 324 325 327 333 332 324 319 319 318 315 310 307 301 295 290 281 282 285 278 268 259 254 242 227 218 214 207 202 179 174 179 177 184 185 187 187 182 183
312 315 308 308 310 315 317 321 327 328 322 317 318 316 313 310 306 305 304 289 283 292 290 283 275 267 262 259 244 235 229 219 206 189 187 193 192 192 192 192 193 194 195
Height
1436 1438 1441 1443 1446 1448 1451 1455 1459 1462 1466 1470 1474 1478 1482 1487 1491 1495 1499 1503 1506 1509 1512 1515 1518 1521 1523 1525 1528 1530 1532 1534 1535 1537 1538 1538 1539 1539 1539 1539 1539 1538 1538
1433 1435 1438 1441 1442 1445 1448 1452 1457 1459 1463 1467 1471 1475 1479 1484 1488 1492 1496 1499 1503 1506 1509 1512 1514 1517 1520 1522 1525 1527 1528 1530 1532 1534 1534 1536 1537 1536 1536 1536 1536 1536 1535
1431 1433 1437 1439 1441 1444 1447 1450 1453 1458 1461 1465 1469 1472 1477 1481 1485 1488 1492 1497 1500 1503 1505 1508 1511 1513 1516 1518 1521 1523 1524 1526 1528 1529 1531 1532 1533 1533 1533 1533 1533 1533 1532
1430 1432 1435 1437 1440 1443 1445 1448 1452 1456 1459 1463 1466 1469 1473 1476 1480 1484 1489 1493 1496 1499 1501 1504 1507 1509 1512 1514 1516 1518 1520 1522 1523 1525 1527 1528 1529 1530 1530 1530 1530 1530 1529
1429 1431 1434 1436 1439 1442 1444 1446 1450 1454 1457 1461 1464 1466 1469 1473 1477 1482 1486 1489 1492 1495 1498 1500 1503 1505 1507 1510 1512 1514 1516 1517 1519 1521 1522 1523 1524 1525 1526 1526 1526 1526 1526
1430 1432 1434 1437 1439 1440 1442 1445 1448 1452 1456 1459 1461 1463 1466 1470 1474 1478 1482 1485 1488 1491 1494 1497 1499 1500 1503 1506 1508 1509 1511 1512 1514 1516 1517 1518 1519 1520 1521 1522 1522 1522 1522
1432 1433 1435 1437 1438 1439 1441 1444 1447 1450 1453 1456 1458 1461 1465 1468 1471 1475 1478 1482 1484 1487 1490 1492 1494 1496 1499 1501 1503 1504 1506 1508 1509 1511 1512 1513 1514 1515 1516 1517 1518 1518 1517
1434 1435 1436 1437 1438 1439 1441 1443 1447 1449 1451 1453 1456 1459 1462 1465 1468 1471 1475 1478 1480 1483 1485 1487 1489 1492 1493 1495 1497 1499 1501 1502 1504 1505 1506 1508 1509 1510 1511 1512 1513 1513 1513
1437 1438 1438 1439 1440 1441 1442 1444 1446 1448 1450 1452 1454 1456 1459 1463 1465 1468 1471 1474 1476 1478 1480 1483 1484 1486 1488 1490 1492 1493 1495 1497 1498 1499 1501 1502 1503 1504 1505 1506 1507 1509 1508
1441 1441 1441 1442 1442 1443 1444 1445 1446 1448 1450 1452 1454 1455 1458 1460 1462 1464 1467 1469 1471 1473 1475 1477 1478 1481 1483 1484 1486 1487 1488 1490 1491 1493 1495 1496 1498 1499 1499 1501 1502 1502 1503
1445 1445 1444 1444 1445 1446 1446 1447 1448 1449 1450 1452 1454 1455 1456 1457 1459 1461 1463 1465 1467 1469 1471 1472 1473 1475 1477 1478 1480 1481 1482 1484 1486 1488 1489 1491 1492 1493 1494 1495 1496 1497 1497
1449 1448 1448 1448 1448 1448 1448 1449 1450 1450 1452 1452 1453 1454 1455 1456 1457 1458 1459 1461 1462 1464 1465 1467 1468 1470 1471 1473 1474 1475 1476 1478 1480 1482 1484 1485 1487 1488 1489 1490 1491 1491 1492
1452 1451 1451 1451 1451 1450 1451 1451 1451 1452 1453 1453 1454 1454 1454 1454 1455 1456 1457 1458 1459 1459 1460 1461 1463 1464 1466 1467 1468 1470 1471 1473 1475 1476 1477 1479 1481 1482 1484 1484 1485 1486 1487
1455 1455 1454 1454 1453 1453 1453 1453 1452 1453 1453 1453 1453 1453 1453 1453 1454 1454 1454 1455 1455 1456 1456 1457 1458 1459 1461 1462 1463 1464 1466 1468 1469 1471 1472 1474 1476 1477 1478 1479 1480 1481 1482
1458 1457 1457 1456 1456 1455 1455 1454 1454 1454 1453 1453 1452 1452 1452 1452 1452 1452 1452 1452 1452 1453 1453 1453 1453 1454 1456 1457 1458 1459 1461 1462 1464 1465 1467 1468 1470 1472 1473 1474 1475 1476 1477
1460 1460 1459 1458 1457 1457 1456 1455 1454 1454 1453 1452 1452 1451 1451 1450 1450 1449 1449 1449 1449 1449 1449 1449 1450 1450 1451 1452 1453 1454 1455 1457 1458 1460 1462 1463 1465 1467 1468 1469 1470 1471 1472
1462 1462 1461 1460 1459 1458 1457 1455 1455 1454 1453 1452 1451 1450 1449 1449 1448 1447 1447 1446 1446 1445 1445 1445 1445 1445 1446 1447 1448 1449 1450 1451 1453 1454 1456 1458 1459 1461 1463 1464 1465 1466 1467
1464 1463 1462 1461 1460 1458 1457 1456 1455 1453 1452 1451 1450 1449 1448 1447 1446 1445 1444 1443 1442 1441 1441 1441 1441 1440 1441 1442 1442 1443 1444 1445 1447 1449 1450 1452 1454 1456 1457 1459 1460 1461 1462
1464 1463 1462 1461 1460 1459 1457 1456 1454 1453 1451 1450 1448 1447 1446 1444 1443 1441 1440 1439 1438 1437 1436 1436 1436 1435 1436 1437 1437 1438 1438 1440 1441 1443 1444 1446 1448 1450 1451 1453 1455 1456 1457
1464 1463 1462 1461 1460 1459 1457 1455 1453 1452 1450 1448 1447 1445 1444 1442 1440 1438 1436 1435 1433 1432 1431 1431 1430 1430 1430 1431 1431 1432 1433 1434 1435 1437 1438 1440 1442 1444 1445 1447 1449 1451 1452
1463 1463 1462 1460 1459 1458 1456 1454 1452 1451 1449 1447 1445 1443 1441 1439 1437 1434 1432 1430 1429 1427 1426 1425 1424 1424 1425 1425 1426 1427 1427 1428 1429 1431 1433 1435 1437 1438 1440 1442 1443 1445 1447
1463 1462 1460 1459 1458 1456 1454 1452 1451 1449 1447 1445 1442 1440 1438 1436 1433 1431 1428 1426 1424 1422 1420 1419 1418 1418 1419 1420 1420 1421 1422 1422 1423 1425 1427 1429 1431 1433 1434 1436 1438 1440 1442
1461 1460 1459 1458 1456 1455 1453 1451 1449 1447 1444 1442 1440 1437 1435 1432 1430 1427 1424 1422 1420 1418 1416 1415 1413 1413 1413 1414 1414 1415 1415 1416 1417 1419 1421 1423 1425 1427 1429 1431 1433 1435 1437
1459 1458 1457 1456 1454 1453 1451 1449 1447 1444 1442 1439 1436 1434 1431 1428 1426 1423 1421 1418 1416 1414 1412 1410 1409 1408 1408 1408 1408 1409 1410 1411 1412 1413 1415 1417 1419 1421 1423 1425 1427 1430 1432
1457 1456 1455 1453 1452 1450 1448 1446 1444 1441 1438 1435 1433 1430 1427 1424 1422 1419 1417 1414 1412 1411 1408 1406 1405 1403 1402 1402 1403 1403 1404 1405 1406 1407 1409 1411 1413 1415 1417 1419 1422 1424 1427
1454 1453 1452 1450 1449 1447 1445 1443 1440 1438 1435 1432 1429 1426 1424 1421 1418 1415 1412 1409 1408 1405 1403 1401 1400 1398 1397 1397 1397 1397 1398 1399 1400 1402 1403 1405 1407 1409 1411 1413 1416 1419 1421